Vorticity
6 6 6 7 8 9 10 10 10 10 11 11 10 9 7 7 7 6 5 3 2 3 5 6 6 6 5 5 4 3 3 4 4 5 9 8 10 16 16 14 11 7 7 7 7 7 8 9 9 10 10 10 8 9 7 6 8 8 11 11 10 13 15 11 8 13 7 -3 2 4 6 11 12 3 -3 3 5 5 4 1 5 7 3 2 3 6 5 7
9 7 7 7 8 8 8 9 10 10 9 11 12 11 9 8 8 7 6 5 4 2 3 4 5 6 6 7 5 5 4 3 4 4 6 6 6 12 14 16 14 8 7 7 7 6 7 8 8 8 9 10 8 10 7 6 7 7 12 10 12 16 5 1 2 2 1 -4 -3 1 8 11 8 6 4 4 2 0 1 1 5 7 4 3 2 2 5 7
11 10 10 9 9 9 9 8 9 10 9 10 11 12 11 9 8 8 7 6 5 4 3 2 4 5 6 6 6 6 5 4 6 4 3 4 5 8 11 16 17 10 7 6 6 6 6 7 8 8 9 10 9 10 8 7 7 8 10 9 16 9 -6 3 3 -2 3 0 -1 3 8 8 10 14 8 5 7 3 -0 1 3 6 5 6 7 3 6 8
13 12 11 10 10 10 11 10 9 9 9 9 9 11 12 11 10 9 9 8 7 6 4 3 2 4 4 6 7 5 6 6 4 4 4 4 4 5 8 15 18 13 9 6 5 6 6 7 8 7 8 9 9 9 8 7 8 10 9 12 18 1 -9 4 1 -3 5 3 1 6 13 10 5 13 12 1 7 10 4 4 7 8 5 3 5 5 8 7
11 12 12 12 11 10 11 12 11 10 9 10 9 9 10 12 11 10 10 9 8 8 6 5 2 3 3 4 6 5 7 5 3 6 5 3 4 5 7 11 16 16 12 9 6 6 5 6 7 6 7 8 9 9 9 8 7 8 11 14 11 0 -2 3 2 3 4 5 6 5 14 18 6 4 14 7 2 12 11 5 9 11 8 5 5 6 10 8
9 9 10 11 11 11 10 11 12 12 11 10 9 9 9 10 12 11 11 10 9 9 8 7 4 3 3 3 4 5 6 3 3 9 7 4 6 6 6 7 11 15 15 13 7 6 6 5 6 5 6 8 8 8 9 9 8 6 9 12 8 6 6 -0 2 8 5 6 7 6 6 10 10 2 12 14 1 10 16 3 6 11 8 7 4 7 13 8
8 8 8 9 9 10 10 10 10 12 13 12 11 9 9 9 10 11 11 11 10 10 9 8 7 5 3 3 3 4 5 3 4 8 7 5 7 7 6 6 7 12 17 16 8 5 6 6 6 5 5 7 7 8 8 9 10 7 7 8 7 11 14 7 7 9 9 11 5 8 6 1 8 5 5 10 -4 -2 8 -0 2 8 6 9 8 8 12 8
8 9 9 8 8 8 9 10 10 10 11 13 13 11 10 8 9 10 10 11 11 11 10 9 9 7 5 4 3 3 4 5 5 5 6 4 5 7 7 7 5 9 17 17 11 6 5 5 6 6 5 6 7 7 8 8 8 7 8 10 6 7 9 8 10 8 8 14 9 9 10 6 10 8 3 6 -2 -5 1 0 5 13 10 9 10 6 6 6
8 8 8 8 8 8 7 8 8 9 10 11 13 13 12 10 8 9 9 9 10 11 11 10 9 8 8 5 3 3 3 4 3 3 7 5 4 6 6 7 5 6 12 17 14 8 6 5 6 6 5 6 6 6 8 7 7 8 8 10 10 8 7 6 8 7 7 12 12 9 9 7 5 7 8 5 1 -2 -1 -4 -3 12 14 7 7 4 4 5
8 8 8 8 8 8 8 7 7 7 9 10 10 12 14 13 10 8 9 9 9 10 10 11 10 9 9 7 5 4 3 3 2 4 7 6 5 6 6 7 6 5 8 16 17 11 6 4 5 6 4 4 4 4 6 5 7 7 6 7 8 8 8 9 7 7 10 10 9 9 10 9 2 3 12 8 1 -4 -2 0 -8 -3 5 5 7 3 3 6
7 8 8 9 9 9 8 7 7 6 7 9 9 10 12 14 14 10 8 8 9 9 9 10 10 10 10 9 7 5 3 4 4 4 5 6 5 5 5 6 6 6 6 12 18 15 7 4 4 4 5 6 4 5 6 5 7 7 7 8 8 10 9 8 9 9 10 10 11 10 10 12 6 4 14 14 7 -1 0 9 4 1 4 2 4 4 2 4
7 8 8 9 10 9 8 8 8 7 6 7 8 9 10 12 15 14 10 8 8 9 9 9 9 10 10 9 8 8 7 6 6 6 6 6 6 6 7 6 6 5 5 8 15 16 11 7 3 1 4 6 4 6 6 5 8 9 9 10 10 11 12 9 8 9 9 10 10 10 11 12 6 5 11 10 7 6 1 0 3 8 7 1 0 4 4 6
7 7 7 8 10 10 10 8 7 8 7 6 6 7 9 9 12 14 14 10 9 9 8 9 8 9 10 10 10 11 9 7 7 7 7 7 7 7 7 7 7 5 4 6 11 15 14 11 6 2 2 3 4 6 7 5 5 7 7 10 11 10 12 12 11 12 12 12 9 9 15 16 7 5 10 7 2 4 5 -0 -1 -0 -1 2 4 5 6 6
8 8 8 7 9 10 11 10 8 8 8 7 6 5 7 8 10 12 14 13 11 10 9 8 8 8 9 9 9 10 9 7 7 6 6 7 7 8 6 7 7 6 6 4 5 11 15 15 9 6 3 1 4 6 5 5 6 8 8 9 10 9 10 10 11 13 14 15 10 4 8 12 11 12 11 7 3 5 12 9 5 6 3 3 4 6 8 7
8 8 8 8 8 9 11 11 10 9 8 8 7 6 5 6 8 10 12 13 13 12 10 9 8 8 8 7 7 9 8 8 11 9 8 7 6 7 6 7 7 6 6 4 3 6 11 16 16 12 6 2 5 5 4 6 6 5 9 11 8 10 12 11 11 12 16 14 7 6 12 17 20 20 11 4 8 9 12 13 8 9 8 4 2 2 3 5
7 7 8 8 8 9 10 11 12 11 9 8 8 7 6 5 6 8 10 12 13 13 12 11 10 9 8 6 6 7 7 9 11 7 6 7 6 7 6 6 7 6 6 6 5 3 5 13 20 15 7 7 6 2 4 8 8 6 7 8 8 12 14 16 14 11 15 8 9 21 20 19 20 18 8 1 10 9 7 12 9 4 4 3 0 -4 -1 6
5 5 6 8 8 9 10 11 12 12 11 9 8 8 7 6 5 6 8 10 12 13 12 12 11 11 9 8 9 9 8 9 9 7 6 7 6 7 6 6 7 7 8 5 4 5 5 8 14 12 9 10 6 3 6 5 6 10 8 7 10 10 10 16 14 12 14 5 20 27 -0 0 11 9 9 4 9 12 6 6 6 7 7 5 1 -2 4 8
5 5 5 7 8 9 9 10 11 12 13 11 9 8 8 8 6 5 7 8 10 11 12 12 11 11 11 11 11 12 10 7 8 8 7 7 6 5 6 7 7 7 7 5 6 7 6 5 5 6 10 11 6 3 4 5 7 9 10 10 10 10 13 14 6 9 13 6 31 28 -18 -10 9 4 8 7 9 14 14 11 3 1 1 2 5 4 5 5
5 5 5 7 7 9 9 10 11 11 12 13 11 9 8 8 8 6 7 8 9 10 13 15 13 11 12 12 11 13 11 8 8 8 7 8 7 6 6 7 6 7 6 6 8 6 4 4 1 2 7 11 12 6 1 6 11 12 13 8 10 22 23 14 2 4 8 5 32 30 -12 -7 8 2 4 2 3 7 12 17 9 4 2 3 4 -0 2 4
7 6 6 8 9 10 10 9 11 12 12 13 12 10 9 8 9 9 8 6 6 8 9 12 12 11 12 11 10 14 13 10 10 8 8 9 7 7 7 7 6 6 7 6 7 7 5 2 0 3 6 11 15 9 2 3 9 16 19 12 14 21 13 11 11 10 15 13 23 23 0 4 13 8 10 6 7 12 9 11 11 7 2 4 5 1 5 8
9 9 8 9 10 10 10 10 11 12 12 12 13 11 9 8 8 10 9 7 5 6 7 9 10 10 13 11 9 12 11 10 10 8 9 9 8 8 6 6 6 5 7 7 7 5 4 2 3 6 7 9 12 12 6 1 -0 0 12 24 18 8 4 12 13 9 23 23 16 17 0 -1 9 6 10 7 3 9 5 9 20 16 5 5 9 7 9 12
12 10 9 10 11 11 11 11 11 13 13 12 13 11 10 9 9 10 9 9 9 7 9 11 9 10 13 11 10 11 9 10 9 8 9 8 8 8 7 7 5 6 7 7 7 5 4 5 5 7 7 7 9 13 9 4 1 -11 -3 20 13 5 5 7 7 3 22 29 19 22 5 -6 6 4 9 11 2 1 -4 6 24 22 12 7 5 5 8 10
16 14 12 10 10 11 11 11 11 14 15 13 11 11 12 9 9 11 8 10 12 8 10 12 7 9 11 11 14 13 12 16 14 9 9 8 9 7 7 8 5 7 6 5 7 5 6 8 6 5 5 7 7 11 10 4 8 -4 -12 2 8 13 6 6 19 6 18 43 23 10 -2 -7 10 7 3 8 4 8 3 -0 10 15 13 7 2 4 5 3
21 18 15 13 12 11 10 11 11 14 17 15 10 10 14 10 8 10 9 9 10 9 12 12 3 7 12 10 11 10 12 19 17 14 12 7 10 9 7 8 6 7 6 7 7 5 8 8 8 7 3 6 5 8 12 2 6 2 -11 -5 6 15 3 1 15 -12 -8 24 9 2 -1 -7 17 20 8 9 7 12 14 0 -4 0 3 1 1 0 0 2
33 25 20 14 13 12 10 11 10 10 17 18 13 9 11 12 9 9 9 9 9 8 14 16 5 5 12 10 8 7 8 14 13 13 14 9 10 11 9 9 6 7 6 6 7 5 8 6 6 8 5 8 6 6 11 6 7 4 -2 4 2 9 12 4 7 -2 0 7 -8 4 10 -10 1 12 7 9 7 8 12 9 4 -3 -8 -4 1 -0 1 6
30 28 27 17 15 15 9 10 10 8 12 18 19 12 8 10 10 8 7 10 9 5 10 16 8 6 14 9 5 7 7 9 9 11 12 9 10 9 9 11 8 8 7 7 7 5 7 8 6 7 5 6 6 6 9 9 10 4 6 9 -6 2 18 6 3 2 1 4 -7 -4 5 -8 -17 -11 -1 3 4 9 10 12 12 4 2 7 9 6 6 7
24 23 28 21 17 16 11 10 10 7 8 13 19 18 12 8 9 9 7 10 11 4 8 14 8 8 16 12 6 9 10 7 6 11 11 9 11 9 8 11 9 8 7 6 6 4 5 7 5 6 7 7 5 5 8 9 9 8 8 6 0 8 8 3 9 -4 -12 11 18 9 11 10 -1 -3 6 4 2 7 8 11 13 8 9 11 9 8 7 6
22 21 27 23 20 16 13 12 9 9 9 9 14 19 20 13 8 7 6 11 15 11 10 10 6 6 14 16 8 7 12 10 9 11 8 6 10 9 7 10 9 9 9 6 7 7 6 7 7 7 4 6 7 6 9 9 6 11 12 9 18 15 -5 -1 15 13 22 28 13 10 10 6 10 11 10 12 9 4 0 5 7 8 13 12 8 7 7 7
14 23 28 25 24 17 13 14 11 11 11 8 8 12 20 21 15 9 4 8 15 15 11 9 7 3 9 17 10 6 12 8 7 12 8 5 8 9 9 9 9 10 8 8 7 8 8 4 6 10 6 5 9 5 7 10 7 9 12 22 35 13 -16 -1 12 11 32 25 -4 6 14 4 10 10 6 12 14 10 8 6 1 2 9 15 13 7 5 7
8 21 25 24 27 20 16 17 14 13 12 10 11 10 12 18 21 18 11 5 9 14 11 9 10 3 7 17 9 6 14 8 5 11 7 4 7 9 9 9 10 11 9 9 4 3 13 13 4 5 8 8 10 8 3 6 13 4 -7 12 41 24 -16 -11 14 6 -11 -9 1 13 14 11 12 7 3 5 5 7 11 12 10 4 -0 6 13 13 9 7
14 22 23 23 24 22 18 17 15 14 13 11 12 12 11 12 15 20 21 13 13 20 15 7 10 8 8 13 8 7 15 11 7 10 5 2 7 8 7 8 9 10 8 8 8 1 2 13 11 3 8 9 5 12 9 4 15 8 -17 -11 23 36 0 -30 -4 11 -16 -14 16 17 9 15 15 7 4 3 4 5 5 8 12 8 1 1 7 13 14 8
18 23 22 21 21 23 18 17 16 12 13 14 13 13 12 11 9 15 25 17 10 18 17 7 6 10 10 8 5 9 16 14 10 12 6 2 8 6 4 8 7 9 10 4 11 15 3 7 15 8 18 23 3 5 16 5 9 15 -3 -16 1 32 30 -11 -20 3 8 13 21 13 9 12 9 5 4 3 5 5 7 12 12 12 12 10 7 9 12 13
19 20 21 20 21 22 16 17 17 13 13 13 14 12 7 8 8 15 25 18 14 19 19 19 12 4 10 11 5 5 11 15 15 14 8 3 9 9 5 8 5 7 16 9 3 10 8 9 16 2 3 23 13 3 14 9 4 14 6 -10 -4 22 36 14 -11 -13 -2 8 13 13 12 8 3 4 6 6 9 10 11 14 13 10 11 14 14 13 16 19
17 16 19 20 21 20 16 15 15 15 14 9 12 13 7 9 12 20 24 12 18 23 11 20 25 6 5 11 8 8 7 10 14 14 12 7 6 8 4 4 7 3 8 18 15 15 10 -0 5 -0 -15 1 15 8 10 17 17 19 12 -6 -16 -1 25 33 14 -10 -17 -9 6 13 9 5 3 6 11 8 4 6 9 14 15 9 5 9 15 16 18 18
16 19 20 19 19 16 14 14 13 14 15 12 12 10 12 19 19 28 30 6 9 25 11 14 29 21 14 11 9 14 14 11 13 10 13 15 8 9 8 3 11 7 -6 -0 7 18 26 12 7 19 16 10 13 10 2 10 27 26 15 6 -16 -27 -0 32 31 7 -8 -0 14 11 -3 -4 -2 -3 6 11 6 3 1 5 11 10 6 5 7 12 14 15
18 22 21 19 17 15 14 16 15 13 13 15 16 17 24 31 26 26 27 9 5 19 17 20 30 22 17 19 13 12 14 14 18 11 8 16 12 10 11 5 8 10 1 -0 -1 3 21 27 17 19 33 29 20 24 3 -12 24 33 2 3 10 -6 -8 8 24 25 10 7 19 15 -4 -8 -3 -9 -13 -6 3 3 1 5 9 10 10 6 6 9 10 13
24 26 24 20 14 14 16 16 15 14 15 17 18 22 20 15 20 21 12 12 14 9 3 13 33 33 24 25 18 12 13 11 19 20 8 10 13 11 12 9 9 9 -2 -1 10 9 7 21 26 11 11 13 18 40 11 -33 7 45 20 7 9 7 10 3 7 24 19 2 2 12 13 6 5 3 -1 3 5 -0 5 19 17 7 5 5 6 8 7 9
29 23 19 19 15 16 19 14 16 19 19 18 17 21 15 1 11 19 4 9 22 15 -3 -7 20 43 38 33 26 19 18 6 5 20 18 13 14 12 13 10 10 12 -0 -10 -1 14 14 10 13 11 10 17 33 50 16 -37 -25 10 27 35 10 -7 12 9 -7 7 24 15 -1 3 15 14 9 9 15 23 19 5 4 19 23 13 9 7 1 2 6 7
22 14 14 23 20 19 20 13 14 19 17 21 22 23 21 10 14 17 4 9 13 7 6 3 13 27 27 32 33 24 22 8 -2 9 16 21 21 15 17 15 10 11 10 2 -9 7 31 15 -3 15 28 22 23 28 12 -7 -10 -12 4 35 27 4 10 10 -7 -7 12 25 19 7 4 7 10 9 11 19 23 16 10 11 15 14 18 22 13 4 7 10
14 14 22 30 23 20 21 13 14 20 19 25 24 14 9 9 17 12 2 16 13 -3 8 16 9 8 14 26 27 25 32 18 3 9 10 18 31 25 18 17 15 10 6 5 -3 -1 18 10 -3 18 23 -0 -4 14 27 18 -3 -17 -9 19 30 13 5 8 2 -6 -2 13 26 21 8 6 9 7 6 10 12 15 14 9 8 7 10 20 21 13 10 13
14 19 24 22 17 19 23 20 23 24 18 18 13 3 2 11 20 9 1 17 13 -5 4 11 5 6 14 17 8 20 44 20 -1 19 15 5 20 25 20 18 18 17 2 -5 1 5 9 7 -2 -3 -0 -0 7 29 53 34 -16 -39 -26 1 20 16 9 8 1 -2 -3 -4 6 15 13 12 11 11 13 11 8 11 12 11 15 16 9 6 12 14 11 12
6 14 18 9 9 23 29 27 27 24 16 12 4 0 10 17 13 5 5 12 3 -3 8 11 15 19 11 9 3 12 41 22 -7 15 21 7 17 24 26 28 21 25 21 -0 -4 7 19 22 3 -14 -1 20 16 18 46 47 7 -15 -12 -8 -5 5 17 14 2 7 9 -2 2 9 9 11 8 9 13 13 13 13 11 14 18 18 14 6 5 8 10 11
1 11 21 18 21 29 27 22 23 20 12 9 3 1 11 12 4 4 9 6 1 7 8 1 17 24 2 4 8 4 28 25 -7 1 13 10 18 19 25 34 22 25 35 17 2 5 12 15 1 -12 2 22 19 18 41 47 18 8 20 13 -8 -8 9 11 1 6 10 3 6 7 5 10 10 8 9 8 8 10 9 13 13 10 13 12 7 5 5 8
15 22 29 31 31 21 16 24 24 13 8 8 2 0 7 7 9 16 13 5 5 9 3 -1 18 21 -3 2 15 5 15 20 3 8 11 5 15 18 21 30 13 4 17 16 11 11 4 3 6 2 1 11 14 7 20 37 19 2 20 31 18 5 7 9 1 1 9 7 3 4 3 3 5 5 5 3 4 8 8 9 9 8 13 15 14 13 10 8
19 30 30 33 31 15 16 30 18 3 6 2 -9 -5 4 7 19 27 14 8 13 6 -1 4 13 13 3 8 18 6 1 9 16 19 3 -7 16 24 18 19 4 -3 13 18 15 14 7 4 8 5 -5 -3 5 -1 6 29 19 -7 -4 19 35 23 1 4 11 7 10 7 -1 8 11 2 1 3 2 5 10 15 16 15 14 11 10 11 11 12 13 10
25 30 20 19 19 10 20 32 20 9 3 -12 -17 -3 6 8 19 23 13 14 16 3 2 9 7 10 10 6 10 8 -2 4 21 20 -3 -7 17 24 16 14 7 7 19 19 11 9 10 11 9 5 -0 -2 9 16 15 20 17 3 -11 -8 25 38 3 -8 13 17 9 3 3 16 18 7 6 6 3 10 18 23 25 24 20 14 8 8 7 7 11 10
26 19 10 13 11 7 19 28 21 10 -6 -15 -10 -4 2 11 15 16 18 20 13 1 7 14 3 3 7 3 9 11 -2 5 25 18 -1 1 15 18 14 9 4 7 10 8 11 9 5 9 8 3 -3 -8 -1 5 -2 -1 11 25 18 -13 -10 26 21 -7 -0 10 4 -2 2 12 14 8 9 8 6 9 6 4 9 13 16 15 10 10 10 11 13 12
9 9 13 18 17 19 24 23 20 13 1 1 -2 -15 -5 13 14 16 21 16 8 3 8 14 5 0 7 10 13 7 -8 4 26 18 -0 1 10 15 13 4 2 10 10 7 15 17 13 12 7 4 1 -7 -5 1 1 3 6 19 40 18 -18 3 26 9 -2 4 5 3 2 4 10 11 6 4 7 8 -0 -2 3 6 10 13 12 12 12 11 11 10
3 9 16 19 21 24 16 8 12 8 -0 3 1 -8 3 13 12 19 20 11 10 8 5 13 9 -0 7 13 8 3 -1 6 19 18 4 -2 6 11 3 -4 5 13 9 7 12 18 20 14 5 8 14 6 3 5 6 12 8 4 27 35 9 2 15 14 9 4 1 6 4 -1 8 17 14 6 4 8 13 16 17 15 14 14 13 13 12 10 9 9
6 9 11 10 8 1 -10 -9 2 0 -4 3 8 10 16 20 20 24 20 12 9 4 5 16 9 -7 1 13 8 2 5 9 12 15 8 -2 3 12 1 -4 9 9 -0 2 12 21 24 13 2 7 15 14 12 5 -2 3 9 5 11 20 14 3 -1 7 17 11 1 5 8 3 0 7 19 19 9 9 16 17 14 11 9 8 7 8 9 9 9 9
11 11 9 6 7 6 1 4 9 11 14 16 18 23 23 19 18 21 23 12 0 3 14 15 5 -7 -4 10 12 -1 -0 13 15 9 6 1 3 13 10 4 7 6 3 6 8 17 22 12 3 4 8 14 15 4 -3 1 5 6 5 3 5 7 3 3 10 13 7 1 7 15 7 1 15 26 20 16 15 11 10 9 7 9 11 11 12 13 12 12
14 17 16 11 16 19 13 11 12 17 24 24 27 32 18 1 5 24 33 13 -10 4 20 10 2 2 -0 8 15 -0 -5 14 18 6 4 5 3 8 15 18 14 8 11 13 7 11 20 15 8 6 4 11 18 10 -0 -3 1 11 13 5 6 14 15 8 4 9 13 6 6 16 13 4 7 11 7 7 7 5 6 8 8 10 12 11 12 13 13 12
Height
5712 5713 5714 5715 5717 5718 5720 5721 5723 5725 5727 5729 5732 5734 5737 5739 5742 5744 5747 5749 5752 5754 5757 5759 5761 5764 5766 5768 5770 5772 5774 5776 5777 5779 5781 5782 5784 5786 5788 5790 5793 5795 5798 5800 5801 5803 5804 5806 5807 5809 5811 5812 5814 5815 5817 5819 5820 5822 5824 5826 5829 5832 5835 5836 5838 5838 5837 5835 5831 5835 5843 5844 5845 5846 5846 5848 5849 5849 5850 5849 5849 5848 5849 5852 5854 5856 5858 5859
5706 5707 5708 5710 5711 5713 5714 5716 5718 5720 5722 5724 5726 5728 5731 5734 5736 5739 5742 5745 5747 5750 5753 5755 5758 5760 5762 5765 5767 5769 5771 5773 5775 5777 5779 5779 5781 5783 5785 5787 5790 5792 5795 5797 5798 5800 5801 5803 5805 5807 5808 5809 5811 5812 5814 5817 5818 5820 5822 5824 5827 5830 5833 5834 5833 5832 5832 5830 5829 5835 5842 5842 5843 5845 5846 5848 5847 5847 5848 5847 5847 5846 5848 5852 5853 5856 5858 5858
5701 5702 5703 5704 5705 5707 5708 5710 5712 5714 5716 5718 5720 5723 5725 5728 5731 5734 5737 5740 5743 5745 5748 5751 5753 5756 5759 5761 5763 5766 5767 5769 5772 5775 5775 5776 5778 5780 5783 5784 5787 5789 5791 5793 5795 5797 5799 5801 5803 5805 5805 5807 5809 5809 5811 5814 5816 5818 5819 5822 5825 5828 5831 5829 5826 5827 5829 5828 5829 5837 5842 5842 5842 5844 5846 5846 5845 5846 5847 5846 5846 5846 5849 5851 5852 5854 5856 5856
5695 5696 5697 5699 5700 5701 5703 5704 5706 5708 5710 5713 5715 5717 5720 5723 5726 5728 5732 5735 5738 5741 5743 5746 5749 5752 5755 5757 5760 5762 5764 5766 5768 5771 5772 5773 5775 5778 5781 5782 5784 5786 5788 5790 5792 5794 5796 5799 5800 5802 5803 5804 5806 5807 5809 5812 5814 5815 5817 5820 5822 5824 5826 5822 5821 5825 5827 5827 5831 5838 5842 5841 5841 5842 5843 5844 5844 5846 5846 5845 5845 5846 5848 5849 5850 5852 5854 5854
5690 5691 5692 5693 5694 5696 5697 5699 5700 5702 5705 5707 5709 5712 5715 5718 5720 5723 5726 5729 5733 5735 5738 5741 5745 5747 5750 5753 5756 5758 5761 5762 5763 5767 5770 5771 5773 5776 5779 5780 5781 5783 5784 5787 5790 5792 5794 5796 5798 5799 5801 5802 5803 5805 5807 5809 5811 5812 5815 5817 5818 5820 5820 5817 5819 5823 5825 5828 5833 5839 5841 5839 5839 5841 5842 5843 5844 5845 5845 5843 5843 5845 5847 5848 5849 5851 5853 5854
5685 5686 5687 5688 5689 5690 5692 5693 5695 5696 5699 5702 5704 5706 5709 5712 5715 5718 5721 5724 5727 5730 5733 5736 5740 5743 5746 5749 5752 5754 5757 5757 5760 5765 5768 5768 5770 5774 5777 5777 5779 5780 5782 5784 5787 5790 5792 5794 5795 5797 5798 5799 5801 5803 5804 5806 5808 5810 5813 5814 5815 5815 5817 5816 5817 5820 5824 5829 5832 5836 5836 5833 5835 5840 5841 5843 5843 5842 5841 5841 5842 5844 5846 5846 5848 5850 5851 5852
5679 5680 5681 5682 5684 5685 5686 5688 5689 5691 5693 5696 5699 5701 5704 5707 5710 5713 5716 5719 5722 5725 5728 5731 5735 5738 5741 5744 5747 5750 5752 5753 5757 5764 5765 5765 5768 5771 5774 5775 5776 5777 5779 5782 5784 5787 5789 5791 5793 5794 5796 5797 5799 5800 5802 5804 5806 5808 5810 5812 5812 5813 5816 5815 5814 5818 5825 5828 5828 5831 5832 5832 5836 5839 5839 5840 5839 5838 5838 5839 5841 5842 5844 5845 5845 5847 5848 5848
5673 5674 5676 5677 5678 5680 5681 5683 5684 5686 5688 5690 5693 5696 5699 5702 5705 5708 5711 5714 5717 5720 5723 5726 5729 5733 5736 5739 5743 5745 5749 5751 5753 5759 5761 5762 5765 5768 5771 5772 5773 5775 5777 5779 5781 5784 5786 5788 5790 5792 5794 5795 5796 5798 5800 5801 5803 5806 5808 5809 5809 5811 5814 5812 5810 5817 5825 5826 5826 5830 5832 5834 5837 5837 5835 5835 5835 5836 5837 5839 5840 5840 5842 5843 5843 5844 5845 5845
5666 5668 5669 5671 5673 5674 5676 5677 5679 5681 5683 5685 5687 5690 5694 5696 5699 5702 5705 5708 5711 5715 5718 5721 5724 5728 5731 5734 5738 5741 5746 5747 5747 5755 5759 5760 5762 5765 5768 5769 5770 5772 5774 5776 5778 5781 5783 5786 5788 5790 5792 5793 5794 5796 5797 5799 5801 5804 5806 5806 5807 5808 5811 5809 5809 5816 5822 5823 5824 5828 5831 5833 5834 5833 5832 5833 5833 5835 5837 5838 5839 5839 5839 5839 5841 5842 5842 5843
5659 5660 5662 5664 5666 5668 5670 5671 5673 5676 5678 5680 5682 5685 5688 5691 5694 5697 5700 5703 5706 5709 5713 5716 5719 5723 5726 5729 5733 5737 5741 5741 5743 5753 5756 5756 5759 5761 5765 5767 5768 5769 5771 5774 5775 5778 5781 5783 5785 5787 5789 5789 5791 5793 5794 5797 5799 5801 5802 5803 5805 5805 5807 5808 5808 5815 5819 5820 5822 5826 5828 5829 5829 5831 5832 5832 5833 5835 5836 5837 5839 5839 5837 5836 5838 5839 5839 5842
5651 5653 5655 5657 5659 5661 5663 5665 5668 5670 5673 5675 5677 5680 5683 5686 5689 5691 5694 5697 5701 5704 5707 5711 5714 5718 5721 5725 5729 5732 5736 5737 5740 5749 5752 5753 5756 5757 5761 5764 5765 5766 5768 5771 5773 5775 5778 5780 5782 5784 5786 5788 5790 5791 5792 5795 5797 5799 5800 5802 5803 5803 5805 5806 5808 5813 5817 5818 5820 5824 5825 5825 5828 5832 5831 5829 5831 5834 5835 5837 5839 5838 5835 5834 5835 5835 5837 5840
5643 5645 5647 5649 5652 5654 5657 5659 5662 5664 5667 5670 5672 5675 5677 5680 5683 5686 5689 5692 5695 5698 5702 5706 5709 5713 5716 5720 5725 5728 5731 5733 5738 5745 5748 5750 5752 5754 5758 5760 5762 5764 5766 5768 5770 5772 5774 5777 5779 5781 5784 5786 5787 5788 5790 5794 5795 5796 5798 5800 5801 5802 5803 5804 5807 5811 5813 5816 5819 5822 5823 5823 5827 5830 5827 5825 5829 5834 5834 5836 5837 5837 5834 5833 5833 5833 5835 5837
5635 5637 5639 5642 5644 5647 5649 5652 5655 5658 5661 5664 5667 5669 5672 5674 5677 5681 5684 5687 5690 5693 5696 5700 5704 5708 5711 5716 5722 5723 5726 5730 5735 5741 5744 5746 5749 5751 5754 5757 5759 5761 5763 5766 5767 5769 5771 5774 5776 5779 5781 5783 5785 5786 5789 5792 5793 5794 5796 5798 5799 5800 5801 5802 5807 5809 5811 5814 5817 5820 5820 5820 5825 5827 5824 5825 5830 5833 5833 5835 5836 5835 5833 5831 5830 5831 5833 5835
5627 5629 5631 5634 5636 5639 5642 5645 5649 5652 5655 5658 5661 5664 5666 5669 5672 5675 5678 5681 5684 5687 5691 5695 5699 5703 5707 5713 5717 5718 5722 5726 5731 5736 5738 5742 5745 5748 5750 5753 5756 5758 5760 5763 5764 5766 5769 5771 5774 5777 5778 5781 5784 5784 5786 5789 5790 5792 5795 5796 5797 5798 5799 5801 5805 5807 5810 5811 5813 5818 5818 5818 5823 5823 5823 5826 5830 5831 5832 5833 5834 5834 5831 5828 5827 5829 5831 5833
5618 5621 5623 5625 5628 5631 5634 5638 5641 5645 5648 5652 5655 5658 5661 5664 5667 5670 5673 5676 5679 5682 5686 5690 5694 5698 5703 5708 5712 5714 5717 5723 5729 5732 5734 5738 5741 5744 5747 5750 5753 5755 5757 5759 5761 5764 5766 5768 5772 5774 5776 5780 5781 5780 5784 5787 5789 5791 5793 5794 5795 5796 5797 5799 5802 5806 5808 5808 5811 5816 5818 5819 5820 5818 5821 5826 5828 5830 5831 5831 5832 5831 5827 5824 5826 5828 5830 5832
5609 5612 5615 5617 5620 5623 5627 5630 5634 5638 5641 5645 5648 5652 5655 5659 5662 5665 5668 5671 5674 5678 5681 5685 5689 5693 5698 5703 5707 5709 5713 5720 5725 5726 5729 5734 5737 5740 5743 5746 5749 5751 5754 5756 5758 5761 5764 5767 5769 5771 5774 5777 5776 5778 5784 5786 5787 5789 5791 5792 5794 5795 5796 5797 5800 5804 5805 5805 5809 5815 5818 5821 5816 5813 5819 5824 5825 5827 5828 5829 5830 5827 5823 5823 5825 5827 5829 5831
5599 5603 5606 5609 5612 5616 5619 5623 5626 5630 5634 5638 5642 5646 5649 5653 5656 5659 5662 5665 5670 5673 5677 5680 5685 5689 5694 5699 5703 5706 5711 5717 5720 5721 5726 5730 5733 5736 5739 5742 5745 5748 5751 5753 5755 5758 5762 5765 5766 5768 5771 5773 5773 5778 5782 5782 5784 5787 5789 5791 5792 5794 5796 5796 5796 5801 5804 5803 5808 5813 5815 5817 5813 5810 5817 5822 5823 5824 5826 5828 5825 5822 5822 5822 5824 5826 5828 5830
5589 5594 5598 5601 5604 5608 5612 5615 5619 5623 5627 5632 5636 5640 5644 5647 5651 5654 5657 5661 5665 5668 5672 5676 5681 5685 5689 5694 5699 5704 5708 5713 5715 5718 5722 5726 5729 5731 5735 5739 5742 5745 5747 5749 5753 5756 5759 5761 5762 5764 5767 5769 5771 5775 5778 5780 5783 5786 5788 5790 5791 5793 5797 5797 5794 5797 5803 5802 5806 5811 5810 5811 5810 5810 5815 5819 5821 5822 5824 5823 5819 5819 5821 5821 5822 5825 5827 5829
5578 5583 5589 5593 5596 5600 5604 5608 5612 5616 5620 5625 5629 5634 5638 5642 5646 5649 5652 5656 5660 5665 5669 5673 5677 5682 5684 5689 5694 5698 5702 5706 5710 5712 5717 5721 5724 5727 5732 5736 5738 5741 5743 5746 5750 5753 5755 5757 5759 5761 5764 5766 5769 5773 5777 5780 5782 5785 5787 5789 5791 5793 5796 5798 5793 5794 5801 5802 5804 5808 5807 5808 5808 5809 5813 5815 5818 5820 5820 5817 5816 5818 5819 5820 5822 5824 5826 5828
5567 5573 5579 5584 5588 5593 5597 5601 5605 5609 5613 5618 5623 5628 5632 5636 5640 5642 5646 5651 5656 5660 5664 5668 5673 5677 5680 5684 5689 5694 5697 5701 5703 5707 5712 5717 5720 5723 5728 5731 5733 5737 5739 5743 5747 5749 5752 5754 5756 5759 5763 5765 5768 5772 5776 5779 5781 5784 5786 5787 5790 5793 5797 5799 5794 5792 5797 5801 5803 5806 5806 5805 5806 5808 5811 5812 5814 5814 5813 5814 5815 5817 5817 5819 5821 5823 5825 5827
5557 5563 5569 5575 5581 5586 5590 5594 5598 5602 5607 5612 5617 5623 5626 5629 5632 5636 5642 5646 5651 5655 5659 5663 5668 5673 5675 5678 5683 5688 5692 5695 5699 5704 5708 5713 5716 5719 5724 5727 5729 5733 5736 5740 5744 5746 5748 5750 5754 5758 5761 5764 5767 5770 5774 5776 5779 5783 5786 5787 5789 5792 5797 5799 5796 5792 5794 5799 5802 5803 5802 5802 5803 5805 5807 5808 5809 5809 5811 5814 5814 5816 5818 5819 5821 5822 5823 5825
5547 5552 5559 5566 5572 5578 5583 5587 5591 5596 5601 5606 5611 5617 5620 5624 5628 5632 5637 5642 5646 5651 5655 5658 5664 5669 5671 5673 5677 5681 5685 5690 5695 5700 5703 5708 5712 5715 5720 5723 5726 5730 5733 5737 5740 5742 5744 5747 5751 5755 5759 5762 5764 5768 5771 5773 5775 5779 5784 5787 5788 5791 5795 5799 5797 5793 5792 5796 5801 5801 5798 5799 5801 5801 5803 5805 5806 5807 5810 5813 5813 5815 5817 5817 5818 5819 5820 5822
5538 5543 5549 5557 5564 5570 5575 5580 5585 5590 5595 5600 5606 5610 5614 5619 5624 5628 5633 5638 5643 5647 5651 5654 5661 5666 5667 5669 5674 5679 5684 5689 5693 5697 5700 5704 5709 5712 5716 5719 5723 5727 5730 5734 5736 5738 5741 5745 5750 5753 5756 5759 5762 5765 5769 5771 5772 5774 5779 5783 5786 5789 5793 5798 5797 5792 5791 5794 5800 5800 5796 5797 5798 5798 5801 5803 5803 5805 5808 5810 5811 5812 5813 5814 5815 5817 5818 5819
5531 5535 5540 5548 5557 5563 5568 5574 5580 5585 5589 5594 5600 5604 5609 5614 5619 5624 5629 5633 5637 5642 5646 5650 5655 5661 5665 5667 5670 5677 5684 5687 5690 5693 5696 5702 5706 5709 5713 5716 5720 5723 5727 5731 5733 5736 5739 5744 5748 5751 5754 5756 5759 5762 5765 5768 5769 5771 5776 5779 5784 5788 5792 5797 5794 5790 5792 5795 5798 5797 5793 5793 5794 5796 5799 5800 5801 5803 5804 5807 5809 5810 5811 5812 5813 5815 5816 5817
5524 5528 5533 5542 5550 5556 5563 5569 5574 5579 5584 5589 5594 5599 5604 5610 5615 5620 5623 5628 5633 5638 5642 5645 5650 5657 5660 5662 5667 5675 5680 5682 5685 5689 5692 5698 5703 5706 5709 5712 5717 5720 5724 5728 5730 5733 5737 5741 5745 5747 5751 5754 5757 5759 5762 5765 5766 5769 5774 5777 5783 5788 5791 5794 5790 5787 5792 5795 5794 5791 5790 5791 5792 5795 5798 5798 5799 5800 5802 5804 5806 5808 5809 5810 5811 5812 5814 5815
5517 5521 5527 5535 5543 5550 5558 5564 5569 5575 5580 5584 5589 5593 5599 5605 5610 5615 5619 5623 5628 5633 5637 5641 5647 5653 5656 5659 5665 5671 5674 5677 5682 5684 5687 5694 5699 5702 5706 5709 5714 5717 5721 5725 5727 5730 5733 5737 5741 5743 5747 5751 5753 5756 5759 5763 5764 5767 5772 5776 5780 5783 5789 5792 5785 5784 5789 5791 5790 5789 5789 5791 5791 5793 5794 5795 5797 5798 5800 5802 5803 5805 5806 5807 5809 5809 5811 5812
5513 5516 5521 5529 5537 5545 5552 5558 5564 5570 5574 5579 5583 5588 5594 5600 5606 5612 5616 5619 5625 5630 5634 5638 5644 5650 5654 5658 5662 5667 5671 5675 5679 5680 5684 5691 5694 5697 5701 5705 5710 5714 5718 5721 5723 5726 5730 5733 5737 5740 5744 5747 5749 5753 5757 5760 5761 5765 5770 5773 5776 5779 5786 5789 5782 5781 5787 5788 5787 5787 5788 5789 5789 5789 5790 5791 5794 5795 5797 5799 5800 5802 5803 5804 5805 5806 5807 5808
5510 5513 5518 5525 5532 5540 5547 5553 5559 5565 5569 5575 5580 5585 5590 5596 5602 5608 5612 5617 5622 5625 5629 5635 5641 5646 5650 5653 5657 5664 5669 5673 5676 5679 5681 5687 5691 5694 5698 5701 5706 5711 5715 5718 5721 5723 5726 5731 5734 5736 5740 5743 5746 5751 5754 5757 5759 5763 5767 5770 5774 5777 5781 5785 5782 5780 5783 5785 5784 5784 5784 5787 5787 5786 5786 5788 5791 5792 5793 5796 5797 5798 5799 5801 5802 5803 5804 5805
5507 5510 5515 5522 5529 5536 5543 5549 5555 5560 5565 5571 5577 5582 5587 5593 5598 5603 5608 5614 5617 5620 5626 5632 5637 5642 5646 5649 5653 5660 5664 5668 5674 5677 5678 5684 5689 5692 5696 5699 5703 5708 5712 5715 5719 5720 5723 5729 5731 5733 5738 5741 5744 5749 5751 5753 5757 5762 5766 5768 5772 5774 5776 5781 5782 5780 5779 5779 5780 5780 5781 5784 5785 5783 5782 5785 5787 5788 5790 5793 5794 5796 5797 5798 5799 5800 5801 5802
5505 5508 5513 5520 5527 5533 5539 5546 5551 5556 5562 5567 5573 5579 5584 5589 5595 5599 5605 5611 5614 5618 5622 5627 5633 5639 5643 5646 5651 5656 5661 5664 5669 5671 5672 5680 5687 5690 5694 5697 5701 5706 5709 5712 5716 5718 5720 5725 5728 5731 5736 5739 5741 5745 5748 5750 5754 5759 5763 5766 5768 5770 5772 5776 5779 5779 5776 5774 5776 5779 5779 5781 5784 5781 5779 5783 5784 5783 5787 5790 5792 5793 5794 5796 5797 5797 5798 5799
5503 5506 5512 5518 5524 5530 5536 5542 5548 5553 5559 5565 5570 5576 5581 5586 5591 5595 5603 5610 5613 5614 5618 5624 5630 5635 5639 5644 5649 5654 5657 5660 5664 5667 5669 5676 5683 5685 5689 5693 5696 5702 5705 5708 5711 5714 5717 5720 5725 5729 5731 5733 5737 5742 5746 5748 5751 5755 5759 5762 5764 5766 5770 5771 5773 5774 5771 5769 5774 5778 5778 5779 5781 5778 5775 5778 5779 5779 5784 5788 5789 5790 5791 5793 5794 5795 5796 5797
5503 5506 5511 5516 5521 5528 5534 5539 5545 5551 5556 5562 5567 5572 5578 5583 5587 5593 5602 5608 5608 5609 5616 5622 5626 5631 5637 5641 5645 5650 5654 5657 5661 5664 5666 5673 5678 5681 5685 5689 5693 5697 5700 5704 5707 5710 5714 5717 5722 5726 5725 5727 5733 5738 5742 5744 5746 5752 5755 5758 5761 5763 5765 5766 5768 5769 5766 5768 5774 5778 5778 5776 5777 5776 5773 5774 5775 5777 5783 5786 5786 5787 5788 5789 5791 5792 5793 5794
5502 5506 5510 5515 5520 5526 5532 5537 5543 5549 5554 5559 5565 5570 5575 5580 5587 5594 5601 5605 5605 5608 5615 5619 5622 5629 5633 5636 5642 5647 5651 5654 5658 5661 5663 5670 5675 5678 5682 5686 5690 5695 5699 5702 5704 5707 5713 5714 5717 5721 5720 5722 5730 5734 5737 5739 5742 5748 5751 5754 5758 5758 5758 5760 5762 5765 5765 5768 5773 5777 5778 5775 5773 5773 5771 5771 5774 5777 5781 5782 5783 5784 5785 5787 5788 5789 5790 5792
5502 5506 5509 5514 5520 5525 5530 5535 5541 5546 5551 5557 5563 5569 5574 5580 5587 5593 5598 5602 5605 5609 5614 5615 5619 5625 5629 5634 5640 5644 5647 5651 5655 5657 5660 5666 5671 5674 5679 5683 5687 5693 5698 5701 5702 5705 5709 5710 5712 5715 5716 5719 5726 5730 5734 5737 5739 5745 5748 5750 5754 5755 5754 5756 5759 5762 5764 5766 5769 5773 5774 5771 5770 5769 5767 5769 5772 5775 5777 5779 5780 5781 5783 5784 5785 5786 5788 5789
5503 5506 5509 5514 5519 5524 5529 5534 5539 5545 5551 5556 5562 5567 5573 5580 5587 5591 5595 5600 5604 5608 5613 5614 5616 5622 5627 5631 5636 5640 5645 5649 5652 5654 5657 5663 5669 5672 5676 5681 5685 5690 5694 5697 5699 5702 5706 5708 5710 5712 5714 5718 5723 5727 5733 5735 5737 5741 5745 5746 5748 5752 5754 5756 5758 5761 5762 5763 5766 5769 5768 5766 5766 5765 5765 5767 5769 5772 5774 5776 5777 5779 5780 5781 5782 5784 5785 5787
5504 5506 5509 5514 5519 5524 5528 5533 5538 5544 5550 5555 5561 5567 5573 5580 5586 5590 5594 5598 5601 5606 5612 5613 5614 5619 5625 5628 5632 5637 5642 5646 5650 5652 5654 5660 5666 5669 5673 5679 5683 5687 5691 5694 5696 5699 5703 5707 5710 5711 5712 5716 5719 5725 5730 5732 5734 5738 5740 5741 5744 5750 5755 5756 5757 5759 5760 5761 5762 5763 5762 5763 5763 5762 5762 5764 5766 5769 5772 5773 5775 5776 5777 5778 5780 5781 5782 5784
5504 5507 5510 5515 5519 5524 5529 5533 5538 5543 5549 5554 5560 5566 5572 5578 5583 5587 5591 5596 5599 5603 5608 5611 5613 5617 5622 5626 5630 5635 5640 5644 5647 5649 5653 5657 5662 5667 5671 5677 5682 5684 5688 5692 5694 5698 5702 5707 5710 5709 5709 5712 5715 5721 5726 5728 5732 5736 5737 5738 5742 5748 5752 5754 5755 5755 5756 5758 5758 5758 5759 5760 5760 5760 5760 5762 5765 5768 5770 5771 5772 5773 5774 5775 5777 5778 5779 5781
5506 5508 5512 5516 5520 5525 5529 5534 5539 5544 5549 5555 5560 5565 5570 5575 5580 5585 5589 5594 5598 5601 5605 5608 5613 5617 5620 5624 5628 5632 5637 5642 5644 5646 5651 5655 5660 5664 5668 5674 5679 5681 5685 5689 5693 5697 5700 5706 5709 5706 5706 5710 5713 5717 5721 5723 5727 5733 5735 5736 5739 5743 5747 5749 5750 5751 5752 5754 5755 5754 5755 5756 5757 5758 5759 5760 5763 5766 5768 5769 5770 5770 5771 5772 5774 5775 5777 5778
5508 5511 5515 5518 5522 5526 5530 5535 5540 5545 5550 5555 5560 5566 5571 5576 5580 5584 5588 5592 5596 5600 5603 5607 5612 5617 5620 5624 5627 5630 5635 5640 5642 5645 5648 5653 5657 5661 5665 5670 5675 5679 5682 5687 5692 5695 5697 5702 5706 5705 5706 5708 5709 5712 5717 5719 5723 5728 5733 5734 5734 5738 5743 5745 5747 5748 5749 5751 5752 5751 5751 5752 5753 5754 5756 5758 5760 5762 5764 5765 5766 5767 5768 5769 5770 5772 5774 5775
5511 5514 5518 5521 5523 5528 5532 5536 5541 5546 5551 5557 5562 5566 5571 5575 5579 5583 5587 5592 5595 5598 5602 5605 5608 5614 5620 5625 5627 5629 5634 5639 5642 5644 5648 5652 5655 5658 5662 5666 5672 5677 5681 5685 5691 5693 5694 5698 5703 5705 5705 5704 5704 5707 5713 5717 5720 5723 5726 5729 5731 5734 5739 5742 5744 5746 5747 5749 5750 5749 5748 5749 5751 5752 5753 5754 5756 5758 5760 5761 5763 5764 5765 5766 5767 5769 5770 5771
5515 5518 5521 5523 5526 5530 5535 5539 5544 5549 5553 5557 5561 5565 5570 5574 5579 5583 5587 5591 5595 5598 5601 5604 5606 5610 5617 5626 5630 5631 5633 5638 5641 5644 5648 5651 5653 5656 5660 5664 5669 5674 5677 5682 5687 5689 5691 5695 5699 5701 5700 5700 5702 5706 5711 5715 5716 5718 5721 5725 5730 5733 5736 5739 5741 5744 5746 5747 5748 5747 5746 5746 5748 5750 5750 5751 5753 5755 5756 5758 5760 5761 5762 5763 5764 5766 5767 5769
5519 5521 5524 5526 5529 5533 5537 5542 5547 5551 5554 5558 5562 5566 5571 5575 5579 5583 5586 5590 5594 5597 5601 5605 5607 5609 5612 5621 5631 5633 5633 5636 5641 5644 5647 5650 5652 5655 5659 5663 5668 5672 5675 5679 5684 5687 5689 5693 5696 5696 5696 5699 5703 5705 5709 5712 5714 5718 5721 5724 5728 5732 5734 5736 5738 5741 5744 5745 5746 5745 5743 5743 5743 5745 5746 5748 5751 5752 5754 5756 5757 5757 5758 5760 5761 5763 5764 5766
5523 5525 5527 5529 5532 5535 5539 5543 5547 5552 5556 5560 5563 5566 5572 5576 5579 5583 5586 5590 5594 5598 5601 5605 5608 5611 5612 5616 5626 5634 5635 5636 5639 5643 5646 5649 5652 5654 5657 5661 5666 5670 5674 5678 5681 5684 5686 5689 5692 5694 5696 5699 5703 5705 5706 5709 5712 5716 5718 5720 5723 5727 5729 5732 5736 5739 5740 5742 5742 5741 5740 5740 5739 5741 5743 5745 5748 5750 5751 5753 5753 5754 5755 5757 5758 5760 5761 5763
5526 5528 5529 5531 5534 5537 5541 5544 5549 5554 5557 5561 5564 5567 5572 5577 5580 5583 5586 5589 5594 5598 5602 5605 5608 5612 5614 5615 5620 5628 5634 5637 5639 5642 5646 5649 5651 5653 5656 5660 5665 5669 5671 5675 5678 5680 5683 5686 5689 5692 5694 5696 5700 5702 5703 5704 5707 5711 5715 5717 5719 5723 5727 5731 5734 5736 5736 5738 5739 5737 5736 5738 5737 5737 5739 5741 5744 5746 5747 5748 5749 5751 5752 5753 5755 5756 5758 5760
5529 5531 5532 5534 5537 5540 5544 5548 5552 5555 5559 5563 5567 5569 5573 5577 5579 5582 5585 5589 5592 5595 5599 5603 5606 5609 5613 5616 5619 5624 5631 5637 5639 5641 5644 5648 5650 5652 5655 5659 5663 5666 5669 5674 5676 5678 5681 5685 5686 5689 5691 5693 5695 5697 5699 5701 5704 5709 5713 5715 5716 5720 5725 5729 5731 5731 5732 5734 5734 5732 5732 5735 5734 5735 5736 5738 5740 5741 5743 5744 5745 5747 5749 5750 5752 5754 5755 5757
5533 5535 5537 5539 5541 5543 5547 5551 5555 5558 5561 5564 5568 5571 5574 5577 5579 5583 5586 5589 5592 5595 5598 5602 5606 5608 5612 5616 5620 5623 5628 5634 5637 5639 5642 5645 5647 5650 5653 5658 5662 5665 5668 5672 5673 5675 5679 5682 5684 5687 5690 5693 5695 5697 5699 5702 5704 5706 5709 5711 5714 5717 5721 5726 5728 5728 5729 5730 5728 5727 5730 5731 5731 5732 5734 5735 5737 5738 5739 5741 5742 5744 5746 5748 5749 5751 5752 5753
5537 5540 5542 5544 5546 5548 5550 5553 5557 5561 5564 5567 5570 5573 5576 5578 5581 5584 5587 5590 5593 5596 5600 5603 5607 5611 5613 5616 5619 5622 5626 5632 5636 5638 5640 5642 5645 5649 5652 5657 5661 5663 5666 5669 5670 5673 5676 5678 5681 5685 5687 5690 5693 5695 5697 5699 5701 5703 5705 5708 5712 5715 5718 5722 5723 5724 5725 5724 5723 5725 5727 5728 5728 5730 5732 5733 5735 5736 5737 5738 5740 5741 5743 5745 5746 5748 5749 5750
5541 5543 5546 5548 5551 5552 5554 5557 5561 5564 5567 5570 5572 5575 5578 5580 5582 5584 5587 5591 5594 5597 5601 5605 5609 5612 5615 5618 5621 5622 5626 5631 5634 5636 5640 5642 5644 5648 5651 5655 5659 5661 5663 5666 5668 5670 5673 5676 5678 5682 5685 5687 5689 5692 5695 5696 5698 5701 5703 5705 5709 5712 5715 5717 5718 5718 5719 5718 5718 5721 5723 5725 5727 5728 5729 5731 5732 5733 5734 5736 5737 5739 5740 5742 5744 5745 5746 5747
5547 5548 5550 5553 5555 5557 5559 5562 5566 5569 5571 5573 5574 5576 5578 5580 5583 5585 5588 5591 5595 5599 5602 5606 5610 5614 5616 5619 5621 5623 5625 5630 5633 5635 5638 5640 5643 5647 5650 5653 5656 5658 5661 5664 5665 5667 5670 5673 5676 5680 5683 5686 5688 5690 5692 5694 5696 5699 5701 5704 5707 5709 5710 5712 5714 5713 5713 5713 5714 5717 5720 5722 5724 5725 5727 5728 5729 5730 5732 5733 5734 5736 5738 5739 5741 5742 5743 5743
5552 5553 5555 5558 5560 5561 5563 5566 5569 5571 5573 5574 5575 5576 5577 5580 5583 5585 5588 5591 5595 5598 5602 5606 5609 5613 5615 5617 5620 5622 5623 5625 5630 5634 5635 5638 5642 5646 5649 5651 5654 5656 5659 5661 5663 5666 5669 5671 5674 5678 5681 5683 5685 5687 5689 5691 5692 5694 5696 5699 5701 5702 5704 5707 5708 5707 5707 5710 5711 5714 5717 5719 5721 5723 5724 5725 5727 5728 5729 5731 5732 5734 5735 5737 5738 5739 5739 5740
5557 5558 5559 5561 5562 5563 5566 5568 5570 5572 5574 5575 5576 5577 5579 5581 5583 5585 5588 5591 5595 5598 5601 5605 5607 5610 5612 5615 5618 5621 5621 5623 5627 5631 5633 5637 5642 5645 5647 5650 5653 5654 5657 5659 5661 5664 5666 5669 5672 5675 5678 5680 5682 5683 5686 5688 5688 5689 5691 5693 5694 5696 5699 5701 5701 5701 5704 5708 5710 5713 5716 5717 5719 5720 5721 5723 5724 5725 5727 5729 5730 5731 5732 5734 5735 5736 5736 5737
5560 5561 5562 5563 5565 5566 5568 5570 5572 5573 5575 5577 5578 5580 5581 5583 5585 5587 5590 5593 5596 5599 5602 5604 5606 5609 5611 5614 5616 5619 5622 5624 5626 5629 5632 5637 5641 5643 5646 5649 5651 5653 5656 5658 5660 5662 5664 5667 5669 5672 5675 5677 5679 5681 5683 5684 5685 5687 5690 5691 5692 5694 5696 5697 5698 5700 5703 5706 5709 5711 5713 5714 5716 5718 5719 5721 5722 5723 5725 5726 5727 5729 5730 5730 5732 5733 5733 5734